Location: Unspecified
(0.0000°N, 0.0000°E)
Time: 17:56:47
(UTC+00:00)

STARLINK 1045 - Pass Details

Date: 20 January 2020
Orbit: 549 x 551 km, 53.0° (Epoch: 23 January)

Event Time Altitude Azimuth Distance (km) Brightness Sun altitude
Rises 04:34:52 0° 184° (S) 2,730 7.4 -22.4°
Reaches altitude 10° 04:37:56 10° 161° (SSE) 1,830 6.8 -21.7°
Maximum altitude 04:40:21 15° 125° (SE) 1,530 6.8 -21.1°
Drops below altitude 10° 04:42:45 10° 89° (E) 1,822 7.2 -20.6°
Sets 04:45:47 0° 66° (ENE) 2,710 7.8 -19.9°
